Weather in Boao

China     19°11′00″N   110°32′44″E
temp.,
°C
wind,
m/s
gust,
m/s
humid.,
%
clouds,
%
prec.,
mm/h
press.,
hPa
HPBL,
m
28 february, sun
sun2823:00+22e378998 0.3 1013267
02:00+21se239381 0.3 101351
05:00+21se249531 0.0 101298
08:00+23se388856 0.1 1014472
11:00+24se6878100 0.1 1015668
14:00+25se6876100 0.3 1013737
17:00+24se577897 0.1 1011664
20:00+21sse369470 0.1 1013193
1 march, mon
mon123:00+20se359529 0.0 1015146
02:00+20sse359614 0.0 1014123
05:00+20sse35965 0.0 1013154
08:00+22se378715 0.1 1015395
11:00+26se466895 0.0 1016964
14:00+26ese566991 0.0 1014868
17:00+25ese566852 0.0 1013768
20:00+21se358827 0.0 1014113
2 march, tue
tue223:00+21se22910 0.0 101630
02:00+20sse12940 0.0 101423
05:00+20s00962 0.0 101423
08:00+22n239238 0.1 1016187
11:00+25ene447498 0.1 1017718
14:00+26e446799 0.2 1015801
17:00+24e677251 0.0 1014688
20:00+21ene389026 0.0 1016366
3 march, wed
wed323:00+20ene36915 0.0 1017170
02:00+19ene23944 0.0 101776
05:00+21e258854 0.1 1016181
08:00+22e388472 0.4 1018513
11:00+25ese5770100 0.2 1019936
14:00+27ese556091 0.3 10161174
17:00+24ese367597 0.1 1015575
20:00+22e379287 0.5 1016238
4 march, thu
thu423:00+21ese369468 0.4 1017174
02:00+22ese389049 0.4 1016239
05:00+23ese4985100 0.1 1015314
08:00+23ese4984100 0.3 1016359
11:00+27ese676770 0.1 1017992
14:00+27se686435 0.2 10141102
17:00+26se566734 0.0 1013929
20:00+22se369117 0.0 1014169